Location: Albany
(35.0170°S, 117.8920°E)
Time: 21:43:17
(UTC+08:00)

A-11 Canister half - Pass Details

Date: 23 January 2021
Orbit: 1525 x 1684 km, 47.3° (Epoch: 03 March)

Event Time Altitude Azimuth Distance (km) Brightness Sun altitude
Rises 23:35:31 0° 4° (N) 4,915 - -34.7°
Reaches altitude 10° 23:40:24 10° 24° (NNE) 3,940 - -34.9°
Maximum altitude 23:45:54 16° 57° (ENE) 3,471 - -35.1°
Exits shadow 23:50:03 12° 84° (E) 3,746 10.9 -35.2°
Drops below altitude 10° 23:51:23 10° 91° (E) 3,939 11.0 -35.3°
Sets 23:56:11 0° 110° (ESE) 4,914 11.8 -35.4°
